Simultaneous Nadir Overpasses (SNOs) Predictions

Prediction of SNOs between FY3D and NOAA-19 Satellite Orbit:

Table of predicted SNOs for the next 14.0 days since TLE Epoch: 6/29/2020
Index Date (FY3D) Time (FY3D) Lat,Lon (FY3D) SZA (FY3D ) Date (NOAA-19) Time (NOAA-19) Lat,Lon (NOAA-19) SZA (NOAA-19 ) Distance(km) Time Diff (sec)
1 07/11/2020 20:58:45 -79.32, 13.74 120.82 07/11/2020 20:57:33 -79.32, 13.86 120.79 2.52 72
2 07/11/2020 21:49:29 79.31,-178.89 59.18 07/11/2020 21:48:27 79.33,-178.81 59.22 2.47 62
3 07/11/2020 22:40:14 -79.31, -11.61 120.81 07/11/2020 22:39:34 -79.31, -11.75 120.78 3.03 40
4 07/11/2020 23:30:59 79.34, 155.49 59.25 07/11/2020 23:30:28 79.31, 155.57 59.23 3.70 31
5 07/12/2020 00:21:43 -79.31, -36.97 120.80 07/12/2020 00:21:34 -79.32, -37.10 120.77 3.01 9
6 07/12/2020 01:12:28 79.34, 130.13 59.25 07/12/2020 01:12:28 79.33, 130.23 59.23 2.31 0
7 07/12/2020 02:03:13 -79.34, -62.59 120.74 07/12/2020 02:03:34 -79.34, -62.44 120.77 2.99 21
8 07/12/2020 02:53:57 79.34, 104.78 59.26 07/12/2020 02:54:28 79.35, 104.89 59.24 2.45 31
9 07/12/2020 03:44:42 -79.34, -87.94 120.73 07/12/2020 03:45:35 -79.33, -88.06 120.76 2.88 53
10 07/12/2020 04:35:26 79.34, 79.42 59.27 07/12/2020 04:36:29 79.33, 79.27 59.25 3.18 63
